{"data":{"norad_id":48408,"epoch":"2026-05-24T23:09:15.486048Z","epoch_age_seconds":74020,"freshness":"FRESH","line1":"1 48408U 21038BH  26144.96476257  .00002590  00000+0  95130-4 0  9998","line2":"2 48408  53.1600 338.3972 0001153 105.0357 255.0772 15.31717847279119","mean_motion":15.31717847,"eccentricity":0.0001153,"inclination_deg":53.16,"raan_deg":338.3972,"arg_perigee_deg":105.0357,"mean_anomaly_deg":255.0772,"bstar":9.513e-5,"rev_number":27911,"period_min":94.012092554798,"perigee_km":469.89712538036,"apogee_km":471.47646414743,"semimajor_km":6848.8237947639,"source":"CELESTRAK","updated_at":"2026-05-25T13:38:16.712912Z"}}